| time (UTC) | temp F | wind direction | speed knots | gust knots | rain 1hr in | rain 24hr in | rain mn in | humidity % | barometer mb |
| 20260504081517 | 65 | 139 | 0.9 | 7.0 | 0.00 | 0.00 | 0.00 | 57 | 983.8 |
| 20260504044533 | 0 | 0.0 | 0.0 | 0.00 | 0.00 | 0.00 | 984.1 | ||
| 20260504043029 | 0 | 0.0 | 0.0 | 0.00 | 0.00 | 0.00 | 983.7 | ||
| 20260504041532 | 0 | 0.0 | 0.0 | 0.00 | 0.00 | 0.00 | 983.8 | ||
| 20260504040019 | 0 | 275 | 0.0 | 0.0 | 0.00 | 0.00 | 0.00 | 983.7 | |
| 20260504034519 | 39 | 272 | 0.0 | 0.0 | 0.00 | 0.00 | 0.00 | 94 | 983.4 |
| 20260504033015 | 39 | 272 | 0.0 | 0.0 | 0.00 | 0.00 | 0.00 | 93 | 983.5 |
| 20260504031513 | 40 | 272 | 0.0 | 0.0 | 0.00 | 0.00 | 0.00 | 93 | 983.4 |
| 20260504030010 | 41 | 272 | 0.0 | 0.0 | 0.00 | 0.00 | 0.00 | 93 | 983.4 |
| 20260504024508 | 41 | 272 | 0.0 | 0.0 | 0.00 | 0.00 | 0.00 | 93 | 983.6 |
| 20260504023007 | 42 | 272 | 0.0 | 0.0 | 0.00 | 0.00 | 0.00 | 93 | 983.6 |
| 20260504021505 | 42 | 272 | 0.0 | 0.0 | 0.00 | 0.00 | 0.00 | 93 | 983.7 |
| 20260504020005 | 41 | 272 | 0.0 | 0.0 | 0.00 | 0.00 | 0.00 | 93 | 983.7 |
| 20260504014504 | 41 | 272 | 0.0 | 0.0 | 0.00 | 0.00 | 0.00 | 93 | 983.8 |
| 20260504013003 | 42 | 272 | 0.0 | 0.0 | 0.00 | 0.00 | 0.00 | 92 | 983.7 |
| 20260504011501 | 42 | 272 | 0.0 | 0.9 | 0.00 | 0.00 | 0.00 | 93 | 983.6 |
| 20260504010000 | 42 | 272 | 0.0 | 0.9 | 0.00 | 0.00 | 0.00 | 92 | 983.8 |
| 20260504004600 | 42 | 272 | 0.0 | 0.0 | 0.00 | 0.00 | 0.00 | 92 | 983.6 |
| 20260504003058 | 42 | 272 | 0.0 | 0.0 | 0.00 | 0.00 | 0.00 | 92 | 983.7 |
| 20260504001601 | 42 | 272 | 0.0 | 0.0 | 0.00 | 0.00 | 0.00 | 92 | 983.8 |
| 20260504000056 | 43 | 272 | 0.0 | 0.9 | 0.00 | 0.00 | 0.00 | 91 | 983.8 |
| 20260503234623 | 43 | 272 | 0.0 | 0.0 | 0.00 | 0.00 | 0.00 | 91 | 983.9 |
| 20260503233053 | 43 | 269 | 0.0 | 0.9 | 0.00 | 0.00 | 0.00 | 91 | 983.9 |
| 20260503231552 | 43 | 265 | 0.0 | 0.0 | 0.00 | 0.00 | 0.00 | 91 | 984.1 |
| 20260503230051 | 43 | 265 | 0.0 | 0.0 | 0.00 | 0.00 | 0.00 | 90 | 984.1 |
| 20260503224548 | 43 | 276 | 0.0 | 0.0 | 0.00 | 0.00 | 0.00 | 89 | 984.2 |
| 20260503223047 | 44 | 276 | 0.0 | 0.0 | 0.00 | 0.00 | 0.00 | 90 | 984.2 |
| 20260503221555 | 44 | 276 | 0.0 | 0.9 | 0.00 | 0.00 | 0.00 | 89 | 984.3 |
| 20260503220045 | 44 | 276 | 0.0 | 0.9 | 0.00 | 0.00 | 0.00 | 89 | 984.3 |
| 20260503214543 | 44 | 281 | 0.0 | 0.9 | 0.00 | 0.00 | 0.00 | 89 | 984.3 |
| 20260503213043 | 45 | 281 | 0.0 | 0.0 | 0.00 | 0.00 | 0.00 | 87 | 984.2 |
| 20260503211541 | 46 | 281 | 0.0 | 0.9 | 0.00 | 0.00 | 0.00 | 87 | 984.0 |
| 20260503210041 | 46 | 270 | 0.0 | 0.9 | 0.00 | 0.00 | 0.00 | 87 | 984.1 |
| 20260503204544 | 46 | 269 | 0.0 | 0.9 | 0.00 | 0.00 | 0.00 | 86 | 984.1 |
| 20260503203053 | 47 | 276 | 0.0 | 0.9 | 0.00 | 0.00 | 0.00 | 85 | 984.0 |
| 20260503201540 | 48 | 274 | 0.0 | 0.0 | 0.00 | 0.00 | 0.00 | 84 | 983.8 |
| 20260503200039 | 48 | 274 | 0.0 | 0.0 | 0.00 | 0.00 | 0.00 | 83 | 983.7 |
| 20260503194541 | 49 | 274 | 0.0 | 0.9 | 0.00 | 0.00 | 0.00 | 82 | 983.8 |
| 20260503193038 | 50 | 271 | 0.0 | 0.9 | 0.00 | 0.00 | 0.00 | 81 | 983.7 |
| 20260503191537 | 51 | 260 | 0.0 | 0.9 | 0.00 | 0.00 | 0.00 | 80 | 983.6 |
| 20260503190036 | 51 | 260 | 0.0 | 0.9 | 0.00 | 0.00 | 0.00 | 79 | 983.4 |
| 20260503184537 | 52 | 260 | 0.0 | 0.0 | 0.00 | 0.00 | 0.00 | 78 | 983.3 |
| 20260503183036 | 54 | 260 | 0.0 | 0.0 | 0.00 | 0.00 | 0.00 | 76 | 983.3 |
| 20260503181535 | 55 | 260 | 0.0 | 0.9 | 0.00 | 0.00 | 0.00 | 71 | 983.1 |
| 20260503180034 | 57 | 124 | 0.0 | 1.7 | 0.00 | 0.00 | 0.00 | 65 | 983.1 |
| 20260503174533 | 59 | 140 | 0.0 | 0.9 | 0.00 | 0.00 | 0.00 | 63 | 982.9 |
| 20260503173037 | 60 | 220 | 0.0 | 4.3 | 0.00 | 0.00 | 0.00 | 57 | 982.7 |
| 20260503171538 | 61 | 273 | 0.9 | 5.2 | 0.00 | 0.00 | 0.00 | 58 | 982.5 |